Weather past 2 weeks in Port-aux-Francais, French Southern Territories

Now
44 °F

Quite cool.


Feels Like: 35 °F
Forecast: 36 / 41 °F
Wind: 22 mph from North

Location: Port-Aux-Francais Iles Kerguelen

Current Time: May 28, 2015 at 9:49:09 AM

Latest Report: May 28, 2015 at 8:00 AM


Visibility: N/A

Pressure: 29.44 "Hg

Humidity: 92%

Dew point: 42 °F

Location of Port-aux-FrancaisLocation

Historic Weather in Port-aux-Francais — Graph

°F

Port-aux-Francais temperature yesterday

Maximum temperature yesterday: 51 °F (at 2:00 PM)
Minimum temperature yesterday: 40 °F (at 7:00 AM)
Average temperature yesterday: 44 °F

Past Weeks' High & Low Weather Summary

 TemperatureHumidityPressure
High56 °F (May 14, 1:00 PM)94% (May 18, 6:00 AM)30.46 "Hg (May 18, 6:00 AM)
Low31 °F (May 17, 5:00 AM)31% (May 24, 10:00 PM)29.15 "Hg (May 21, 4:00 AM)
Average43 °F76%29.89 "Hg
* Reported May 13 8:00 AM — May 28 8:00 AM, Port-aux-Francais, Weather by CustomWeather, © 2015

Note: Actual official high and low records may vary slightly from our data, if they occured in-between our weather recording intervals... More about our weather records

Advertising

Port-aux-Francais weather history for previous 24 hours

 ConditionsComfort  
Time TempWeatherWind HumidityBarometerVisibility
8:00 AM
Thu, May 28
44 °FQuite cool.22 mph92%29.44 "HgN/A
7:00 AM44 °FQuite cool.23 mph90%29.47 "HgN/A
6:00 AM44 °FQuite cool.29 mph91%29.50 "HgN/A
5:00 AM44 °FQuite cool.32 mph89%29.50 "HgN/A
4:00 AM46 °FCool.14 mph85%29.56 "HgN/A
3:00 AM47 °FCool.20 mph86%29.60 "HgN/A
1:00 AM46 °FCool.15 mph91%29.66 "HgN/A
12:00 AM45 °FQuite cool.3 mph90%29.68 "HgN/A
11:00 PM
Wed, May 27
46 °FCool.10 mph93%29.70 "HgN/A
10:00 PM40 °FQuite cool.No wind93%29.72 "HgN/A
9:00 PM41 °FQuite cool.1 mph93%29.73 "HgN/A
8:00 PM42 °FQuite cool.2 mph93%29.74 "HgN/A
7:00 PM43 °FQuite cool.1 mph93%29.74 "HgN/A
6:00 PM44 °FQuite cool.8 mph93%29.74 "HgN/A
5:00 PM44 °FQuite cool.10 mph93%29.75 "HgN/A
4:00 PM46 °FCool.10 mph91%29.75 "HgN/A
3:00 PM49 °FCool.10 mph89%29.73 "HgN/A
2:00 PM51 °FLow clouds.7 mph85%29.72 "Hg9 mi
1:00 PM50 °FCool.1 mph87%29.72 "HgN/A
12:00 PM48 °FCool.No wind91%29.72 "HgN/A
11:00 AM47 °FCool.1 mph93%29.73 "HgN/A
10:00 AM44 °FQuite cool.No wind94%29.73 "HgN/A
9:00 AM42 °FQuite cool.No wind94%29.73 "HgN/A
Weather by CustomWeather, © 2015

See weather overviewHow to use our weather pages